Regional Weather Roundup
Issued by NWS

Home | Current Version | Previous Version | Text Only | Print | Product List | Glossary On
Versions: 1 2 3 4 5 6 7 8 9 10 11 12 13 14 15 16 17 18 19 20 21 22 23 24 25 26 27 28 29 30 31 32 33 34 35 36 37 38 39 40 41 42 43 44 45 46 47 48 49 50
000
ASUS45 KCYS 210010
RWRWY

WYOMING REGIONAL WEATHER ROUNDUP
NATIONAL WEATHER SERVICE CHEYENNE WY
600 PM MDT SAT SEP 20 2014

NOTE:  "FAIR" INDICATES FEW OR NO CLOUDS BELOW 12,000 FEET
WITH NO SIGNIFICANT WEATHER AND/OR OBSTRUCTIONS TO VISIBILITY.

WYZ001-210100-
YELLOWSTONE NATIONAL PARK

CITY           SKY/WX    TMP DP  RH WIND       PRES   REMARKS
LK YELLOWSTONE   N/A     63  39  41 CALM      30.40S
6HR MIN TEMP:  55; 6HR MAX TEMP:  65;

W YELLOWSTONE  NOT AVBL

$$
WYZ002>013-054>058-071-098>099-210100-
NORTHERN WYOMING

CITY           SKY/WX    TMP DP  RH WIND       PRES   REMARKS
JACKSON        SUNNY     75  39  27 VRB6      30.26F
CODY             N/A    N/A N/A N/A MISG        N/A
GREYBULL       SUNNY     78  36  21 NW7       30.19S
6HR MIN TEMP:  74; 6HR MAX TEMP:  79;

WORLAND        SUNNY     75  39  27 NE3       30.20F
6HR MIN TEMP:  72; 6HR MAX TEMP:  77;

SHERIDAN       SUNNY     71  43  36 NW8       30.25S
6HR MIN TEMP:  71; 6HR MAX TEMP:  74;

BUFFALO        SUNNY     67  39  35 N10       30.31R
6HR MIN TEMP:  67; 6HR MAX TEMP:  70;

GILLETTE       SUNNY     69  35  28 N13       30.27R
6HR MIN TEMP:  69; 6HR MAX TEMP:  73;

HULETT         FAIR      68  36  30 MISG      30.27
NEWCASTLE      FAIR      70  32  24 NW14G21   30.25

$$
WYZ014>020-022>026-101>103-210100-
CENTRAL WYOMING

CITY           SKY/WX    TMP DP  RH WIND       PRES   REMARKS
BIG PINEY      SUNNY     75  32  20 SW5       30.30S
6HR MIN TEMP:  67; 6HR MAX TEMP:  77;

PINEDALE       CLEAR     73  27  17 CALM      30.31S
DUBOIS         FAIR      66  36  32 SE14G22   30.33R
LANDER         SUNNY     77  38  24 NE3       30.23S
6HR MIN TEMP:  73; 6HR MAX TEMP:  79;

RIVERTON       SUNNY     75  39  27 E12       30.25S
6HR MIN TEMP:  69; 6HR MAX TEMP:  78;

CASPER         SUNNY     73  38  27 NE13      30.27S
6HR MIN TEMP:  72; 6HR MAX TEMP:  79;

DOUGLAS        SUNNY     72  39  30 N16G23    30.26S
6HR MIN TEMP:  72; 6HR MAX TEMP:  79;


$$
WYZ021-027>030-104>119-210100-
SOUTHERN WYOMING

CITY           SKY/WX    TMP DP  RH WIND       PRES   REMARKS
EVANSTON       SUNNY     77  25  14 N7        30.28F
6HR MIN TEMP:  69; 6HR MAX TEMP:  78;

KEMMERER       CLEAR     72  30  21 E8        30.31F
ROCK SPRINGS   SUNNY     77  28  16 NE6       30.27F
6HR MIN TEMP:  68; 6HR MAX TEMP:  78;

DIXON          FAIR      78  35  21 NW6       30.27S
RAWLINS        SUNNY     75  32  20 NE9       30.30S
6HR MIN TEMP:  68; 6HR MAX TEMP:  78;

SARATOGA       FAIR      72  34  25 N5        30.31S
LARAMIE        SUNNY     71  40  32 E16       30.33S
6HR MIN TEMP:  68; 6HR MAX TEMP:  75;

CHEYENNE       SUNNY     73  43  33 NE9       30.29R
6HR MIN TEMP:  73; 6HR MAX TEMP:  79;

TORRINGTON     CLEAR     76  43  30 N15       30.19R
6HR MIN TEMP:  75; 6HR MAX TEMP:  83;

PINE BLUFFS    FAIR      75  41  29 NE12      30.24S

$$



USA.gov is the U.S. government's official web portal to all federal, state and local government web resources and services.